TimeCST,TemperatureF,Dew PointF,Humidity,Sea Level PressureIn,VisibilityMPH,Wind Direction,Wind SpeedMPH,Gust SpeedMPH,PrecipitationIn,Events,Conditions,WindDirDegrees,DateUTC
12:15 AM,24.8,19.4,80,30.24,-9999.0,NNW,3.5,-,N/A,,Overcast,340,2013-01-02 06:15:00
12:35 AM,24.8,19.4,80,30.25,-9999.0,Calm,Calm,-,N/A,,Overcast,0,2013-01-02 06:35:00
12:55 AM,24.8,19.4,80,30.25,-9999.0,Calm,Calm,-,N/A,,Overcast,0,2013-01-02 06:55:00
1:15 AM,24.8,19.4,80,30.25,-9999.0,Calm,Calm,-,N/A,,Overcast,0,2013-01-02 07:15:00
1:35 AM,24.8,19.4,80,30.26,-9999.0,NW,3.5,-,N/A,,Overcast,320,2013-01-02 07:35:00
1:55 AM,24.8,19.4,80,30.27,-9999.0,NNW,3.5,-,N/A,,Overcast,340,2013-01-02 07:55:00
2:35 AM,24.8,19.4,80,30.26,-9999.0,NW,3.5,-,N/A,,Overcast,320,2013-01-02 08:35:00
3:15 AM,24.8,17.6,74,30.26,-9999.0,WNW,3.5,-,N/A,,Overcast,290,2013-01-02 09:15:00
3:35 AM,24.8,17.6,74,30.27,-9999.0,WNW,3.5,-,N/A,,Overcast,300,2013-01-02 09:35:00
3:55 AM,24.8,17.6,74,30.26,-9999.0,WNW,4.6,-,N/A,,Overcast,300,2013-01-02 09:55:00
4:35 AM,23.0,17.6,80,30.26,-9999.0,Calm,Calm,-,N/A,,Overcast,0,2013-01-02 10:35:00
4:55 AM,21.2,17.6,86,30.25,-9999.0,Calm,Calm,-,N/A,,Overcast,0,2013-01-02 10:55:00
5:35 AM,21.2,15.8,80,30.26,-9999.0,Calm,Calm,-,N/A,,Overcast,0,2013-01-02 11:35:00
5:55 AM,21.2,15.8,80,30.26,-9999.0,NW,3.5,-,N/A,,Overcast,310,2013-01-02 11:55:00
6:15 AM,21.2,15.8,80,30.26,-9999.0,Calm,Calm,-,N/A,,Overcast,0,2013-01-02 12:15:00
6:35 AM,21.2,15.8,80,30.26,-9999.0,Calm,Calm,-,N/A,,Overcast,0,2013-01-02 12:35:00
6:55 AM,19.4,15.8,86,30.25,-9999.0,Calm,Calm,-,N/A,,Overcast,0,2013-01-02 12:55:00
7:15 AM,19.4,15.8,86,30.25,-9999.0,Calm,Calm,-,N/A,,Overcast,0,2013-01-02 13:15:00
7:35 AM,21.2,15.8,80,30.25,-9999.0,SSE,4.6,-,N/A,,Overcast,150,2013-01-02 13:35:00
7:55 AM,21.2,15.8,80,30.24,-9999.0,SSE,3.5,-,N/A,,Overcast,150,2013-01-02 13:55:00
8:35 AM,21.2,17.6,86,30.26,-9999.0,SSW,5.8,-,N/A,,Overcast,200,2013-01-02 14:35:00
8:55 AM,23.0,17.6,80,30.26,-9999.0,South,3.5,-,N/A,,Overcast,170,2013-01-02 14:55:00
9:35 AM,23.0,17.6,80,30.27,-9999.0,SSW,4.6,-,N/A,,Overcast,200,2013-01-02 15:35:00
10:15 AM,24.8,17.6,74,30.28,-9999.0,Calm,Calm,-,N/A,,Scattered Clouds,0,2013-01-02 16:15:00
10:35 AM,26.6,19.4,74,30.28,-9999.0,West,5.8,-,N/A,,Scattered Clouds,260,2013-01-02 16:35:00
10:55 AM,28.4,19.4,69,30.28,-9999.0,WSW,3.5,-,N/A,,Partly Cloudy,240,2013-01-02 16:55:00
11:15 AM,28.4,19.4,69,30.27,-9999.0,WSW,4.6,-,N/A,,Clear,240,2013-01-02 17:15:00
11:35 AM,30.2,19.4,64,30.26,-9999.0,SW,3.5,-,N/A,,Clear,230,2013-01-02 17:35:00
11:55 AM,30.2,21.2,69,30.25,-9999.0,West,4.6,-,N/A,,Clear,270,2013-01-02 17:55:00
12:15 PM,30.2,19.4,64,30.24,-9999.0,WSW,5.8,-,N/A,,Clear,250,2013-01-02 18:15:00
12:35 PM,30.2,19.4,64,30.24,-9999.0,West,4.6,-,N/A,,Clear,270,2013-01-02 18:35:00
12:55 PM,32.0,19.4,60,30.22,-9999.0,West,5.8,-,N/A,,Clear,260,2013-01-02 18:55:00
1:15 PM,32.0,17.6,55,30.22,-9999.0,West,5.8,-,N/A,,Clear,260,2013-01-02 19:15:00
1:35 PM,33.8,17.6,52,30.21,-9999.0,West,8.1,-,N/A,,Clear,260,2013-01-02 19:35:00
1:55 PM,33.8,17.6,52,30.20,-9999.0,West,4.6,-,N/A,,Clear,260,2013-01-02 19:55:00
2:15 PM,33.8,17.6,52,30.19,-9999.0,SW,5.8,-,N/A,,Clear,230,2013-01-02 20:15:00
2:35 PM,33.8,15.8,48,30.19,-9999.0,SW,5.8,-,N/A,,Clear,220,2013-01-02 20:35:00
2:55 PM,33.8,15.8,48,30.20,-9999.0,SW,3.5,-,N/A,,Clear,220,2013-01-02 20:55:00
3:15 PM,33.8,15.8,48,30.20,-9999.0,SW,5.8,-,N/A,,Clear,230,2013-01-02 21:15:00
3:35 PM,33.8,15.8,48,30.20,-9999.0,SSW,5.8,-,N/A,,Clear,200,2013-01-02 21:35:00
4:15 PM,33.8,15.8,48,30.21,-9999.0,SW,8.1,-,N/A,,Clear,230,2013-01-02 22:15:00
4:35 PM,33.8,15.8,48,30.20,-9999.0,SSW,6.9,-,N/A,,Clear,210,2013-01-02 22:35:00
4:55 PM,33.8,17.6,52,30.21,-9999.0,WSW,6.9,-,N/A,,Clear,240,2013-01-02 22:55:00
5:35 PM,-9999,-9999,N/A,-9999,-9999.0,North,-9999.0,-,N/A,,Unknown,0,2013-01-02 23:35:00
5:55 PM,28.4,17.6,64,30.22,-9999.0,WSW,5.8,-,N/A,,Clear,240,2013-01-02 23:55:00
6:15 PM,28.4,17.6,64,30.22,-9999.0,West,4.6,-,N/A,,Clear,260,2013-01-03 00:15:00
6:35 PM,28.4,17.6,64,30.23,-9999.0,West,3.5,-,N/A,,Clear,260,2013-01-03 00:35:00
6:55 PM,28.4,17.6,64,30.24,-9999.0,WSW,3.5,-,N/A,,Clear,250,2013-01-03 00:55:00
7:35 PM,26.6,17.6,69,30.25,-9999.0,West,3.5,-,N/A,,Clear,260,2013-01-03 01:35:00
8:15 PM,26.6,17.6,69,30.26,-9999.0,SW,4.6,-,N/A,,Clear,230,2013-01-03 02:15:00
8:35 PM,26.6,17.6,69,30.26,-9999.0,SW,4.6,-,N/A,,Clear,220,2013-01-03 02:35:00
8:55 PM,26.6,17.6,69,30.26,-9999.0,Calm,Calm,-,N/A,,Clear,0,2013-01-03 02:55:00
9:15 PM,26.6,17.6,69,30.26,-9999.0,SW,3.5,-,N/A,,Clear,230,2013-01-03 03:15:00
9:35 PM,26.6,17.6,69,30.26,-9999.0,Calm,Calm,-,N/A,,Clear,0,2013-01-03 03:35:00
9:55 PM,26.6,17.6,69,30.27,-9999.0,Calm,Calm,-,N/A,,Clear,0,2013-01-03 03:55:00
10:35 PM,24.8,17.6,74,30.27,-9999.0,Calm,Calm,-,N/A,,Clear,0,2013-01-03 04:35:00
10:55 PM,24.8,17.6,74,30.27,-9999.0,Calm,Calm,-,N/A,,Clear,0,2013-01-03 04:55:00
11:15 PM,24.8,17.6,74,30.27,-9999.0,Calm,Calm,-,N/A,,Clear,0,2013-01-03 05:15:00
11:35 PM,23.0,17.6,80,30.27,-9999.0,Calm,Calm,-,N/A,,Clear,0,2013-01-03 05:35:00
11:55 PM,23.0,17.6,80,30.27,-9999.0,Calm,Calm,-,N/A,,Clear,0,2013-01-03 05:55:00